Regional Weather Roundup
Issued by NWS Newport/Morehead, NC

Current Version | Previous Version | Graphics & Text | Print | Product List | Glossary Off
Versions: 1 2 3 4 5 6 7 8 9 10 11 12 13 14 15 16 17 18 19 20 21 22 23 24 25 26 27 28 29 30 31 32 33 34 35 36 37 38 39 40

000
ASUS42 KMHX 170214
RWRMHX
WEATHER ROUNDUP FOR EASTERN NORTH CAROLINA
NATIONAL WEATHER SERVICE NEWPORT/MOREHEAD CITY NC
1000 PM EDT WED AUG 16 2017

NOTE: "FAIR" INDICATES FEW OR NO CLOUDS BELOW 12,000 FEET
WITH NO SIGNIFICANT WEATHER AND/OR OBSTRUCTIONS TO VISIBILITY

NCZ015>017-031-032-045>047-102-103-170300-
NORTH COAST

CITY           SKY/WX    TMP DP  RH WIND       PRES   REMARKS
EDENTON        CLEAR     79  75  89 CALM      30.04R
ELIZABETH CITY CLEAR     74  74 100 CALM      30.03R
KITTY HAWK     CLEAR     75  74  96 CALM      30.01S
MANTEO         CLEAR     75  73  93 CALM      30.03R

$$

NCZ045>047-081-094-103-104-170300-
CENTRAL COAST

CITY           SKY/WX    TMP DP  RH WIND       PRES   REMARKS
FRISCO         CLEAR     76  75  97 E3        30.02R

$$

NCZ095-097-098-100-101-170300-
SOUTHERN COAST

CITY           SKY/WX    TMP DP  RH WIND       PRES   REMARKS
BEAUFORT       CLEAR     80  78  94 E3        30.03R
CEDAR ISLAND   NOT AVBL
JACKSONVILLE   PTCLDY    80  80 100 S5        30.02R
PINEY ISLAND   CLEAR    N/A N/A N/A E5        30.02R
WILMINGTON     PTCLDY    78  74  87 CALM      30.03R


$$

NCZ011>013-027>030-043-044-078>080-089-090>093-098-170300-
COASTAL PLAIN

CITY           SKY/WX    TMP DP  RH WIND       PRES   REMARKS
AHOSKIE          N/A     74  73  96 CALM      30.03R
CLINTON        CLEAR     78  76  94 CALM      30.03R
ELIZABETHTOWN  NOT AVBL
GOLDSBORO      CLEAR     79  79 100 CALM      30.02R
GREENVILLE     CLEAR     77  77 100 CALM      30.04R
HAVELOCK       MOCLDY    80  76  87 SE3       30.04R
KENANSVILLE    PTCLDY    77  75  94 CALM      30.04R
KINSTON        PTCLDY    77  75  94 CALM      30.04R
NEW BERN       CLEAR     80  78  94 CALM      30.04R
RICHLANDS      CLEAR     79  78  97 CALM      30.03R
ROCKY MOUNT    CLEAR     74  74 100 CALM      30.03R FOG
WASHINGTON     CLEAR     79  76  92 CALM      30.03R
WHITEVILLE     CLEAR     79  73  83 CALM      30.03R

$$

AMZ130-135-150-152-154-156-158-170-250-252-270-ANZ085-086-088-633-658-670-170300-
MARINE OBSERVATIONS

STATION/POSITION TIME  TEMP    WIND        PRES    WAVE   SWELL
                       AIR SEA DIR/SP/G            HT/PER HT/PER
                 (UTC) (F)     (DEG/KT/KT) (MB)    (FT/S) (FT/S)
CHESAPEAKE LIGHT NOT AVBL
64 E VA BEACH    0050   77 78   80/  6/  8 1016.7    2/ 7   2/ 7
DUCK             0148   77 79   80/  6/  6 1016.3
2 E DUCK         0200      79                N/A     2/ 7
OREGON INLET     0148           70/  3/  5 1016.7
13E OREGON INLT  0148      78                N/A     3/ 7   3/ 7
HATTERAS CG      0148   78 84   80/  2/  4 1016.5
DIAMOND BUOY     0050   80 83   40/ 10/ 12 1015.6    2/ 7   2/ 7
CAPE LOOKOUT     0100   81      70/  8/  9 1016.0
BEAUFORT LAB     0148   81 83  110/  3/  4 1016.2
30 SE NEW RVR IN 0108   80 84  120/  2/  4 1016.5
30 SE NEW RVR IN 0143      84                N/A     2/ 5
27 SE WRIGHTSVLE 0108   83 84  220/  6/  8 1016.3
5 SE WRIGHTSVLE  0108   82 84  250/  6/ 10 1016.2
225 S CAPE HAT   0050   84 84  240/ 10/ 12 1016.5    4/ 5   3/ 5
41 SE CHARLESTON 0130   84 84  230/ 10/ 12 1016.0

$$




USA.gov is the U.S. government's official web portal to all federal, state and local government web resources and services.